Rbgn^[z[y[W
メイン
   新天体発見情報
     Comet C/2020 U3 (Rankin)
投稿するにはまず登録を

スレッド表示 | 古いものから 前のトピック | 次のトピック | 下へ
投稿者 スレッド
佐藤裕久
投稿日時: 2020-11-3 21:40
モデレータ
登録日: 2005-6-12
居住地: 日本
投稿: 2661
オンライン
Comet C/2020 U3 (Rankin)

David Rankinの通報によると、10月22日、Mt Lemmonサーベイの1.5-m 反射望遠鏡で得たCCD画像
から集光のあるコマとp.a. 95°に向かって小さな尾がある彗星を発見した。
小惑星センターのPCCP webpageに公表後、R. Weryk (ハワイ大学, 天文学研究所)は、7月21日、
HaleakalaにあるPan-STARRS1 1.8-m Ritchey-Chretien反射望遠鏡で得た観測に戻る小惑星センター
の「分離されたトラックレットファイル」(アクセス可能)に、この天体の多く過去の一夜と以前に
リンクされない観測と同定した。
Werykはまた、彗星らしい活動を捜すために多くのPan-STARRS1とPan-STARRS2の画像を見た。
7月21.5日UTから、4枚の45秒w-バンド Pan-STARRS1画像は、コマと尾は見えない。この彗星は1".0 
(0".9のシーイングの半値全幅:FWHM)で、9月22.3日も同様であった。10月14.24-14.26日のPan-
STARRS1の画像は、大変変わりやすいシーイングで確定的でない。
E. Bryssinck (Kruibeke, ベルギー, 10月22.8日UT, 120秒露出36枚のスタック,0.4-m f/3.8 反射
望遠鏡; 中央集光がある6" x 8"の伸びたコマ(p.a. 308°に伸びている)が見えるが尾はない。5"の
範囲によるr光度は19.7等であった。10月23.95日UT, 120秒露出12枚のスタック, Global Observatory 
"Telescope Live" の0.7-m f/6 反射望遠鏡 + 輝度フィルター, Oria, Almeria, スペイン; 中央
集光がある6" x 8"の伸びたコマ(p.a. 247°に伸びている)が見えるが尾はない。5"の範囲による
光度は20.1等であった)や佐藤英貴氏(東京都文京区)らのCCD位置観測者によって彗星状と観測された。

彗星機能の報告は次の通り:

OC   Date        Reporter           Coma    Tail    PA          Exposures
I52  2020-10-22  G. J. Leonard      3"        8"    110           4x75s
B96  2020-10-22  E. Bryssinck       6x8"            308          36x120s
Z08  2020-10-23  E. Bryssinck       6"                           12x120s
H06  2020-10-23  H. Sato            6"        5"     90          12x120s

発見位置は次のとおり、
     2020 UT             R.A. (2000) Decl.       Mag.   Observer
     Oct. 22.15120   22 06 28.98   +35 35 44.6   20.1   Rankin
          22.15638   22 06 28.98   +35 35 43.0   20.0     "
          22.16157   22 06 28.98   +35 35 41.2   19.9     "
          22.16677   22 06 29.01   +35 35 39.0   20.1     "

MPCの楕円軌道要素、位置推算表は次のとおり、

Orbital elements:
    C/2020 U3 (Rankin)                                                          
Epoch 2021 Jan. 26.0 TT = JDT 2459240.5                                         
T 2021 Feb. 5.97644 TT                                  Rudenko                 
q   2.2761656            (2000.0)            P               Q                  
z  +0.0154687      Peri.  124.26352     +0.57346876     -0.65622265             
 +/-0.0000000      Node   282.67831     +0.48256421     +0.75433830             
e   0.9647906      Incl.   30.17679     +0.66201613     +0.01858946             
From 88 observations 2020 July 21-Oct. 27, mean residual 0".3.                  
                                                                                
    C/2020 U3 (Rankin)                                                          
Epoch 2020 Dec. 17.0 TT = JDT 2459200.5                                         
T 2021 Feb. 5.97487 TT                                  Rudenko                 
q   2.2761692            (2000.0)            P               Q                  
z  +0.0154822      Peri.  124.26284     +0.57347722     -0.65621498             
 +/-0.0000000      Node   282.67825     +0.48255456     +0.75434477             
e   0.9647599      Incl.   30.17680     +0.66201584     +0.01859750             
From 88 observations 2020 July 21-Oct. 27, mean residual 0".3.                  
                                                                                
Ephemeris:
Date    TT    R. A. (2000) Decl.     Delta      r    Elong.  Phase   m1
2020 09 28    22 13 28.7 +37 14 34   1.8962  2.6953   134.5    15.4  20.7
...
2020 10 13    22 07 06.0 +36 25 08   1.8674  2.6125   128.9    17.3  20.5
...
2020 10 21    22 06 24.4 +35 42 28   1.8662  2.5711   125.1    18.5  20.5
...
2020 10 27    22 07 18.1 +35 06 22   1.8711  2.5415   122.0    19.4  20.4
2020 10 28    22 07 34.3 +35 00 09   1.8724  2.5367   121.5    19.5  20.4
2020 10 29    22 07 52.5 +34 53 53   1.8737  2.5319   120.9    19.7  20.4
...
2020 11 04    22 10 25.4 +34 15 55   1.8844  2.5039   117.7    20.5  20.4
...
2020 11 12    22 15 43.3 +33 25 51   1.9046  2.4687   113.2    21.6  20.3
...
2020 11 27    22 31 13.9 +32 02 29   1.9587  2.4097   104.9    23.3  20.3

(MPEC 2020-U254、CBET 4879)

スレッド表示 | 古いものから 前のトピック | 次のトピック | トップ

投稿するにはまず登録を
 
© 1999 Tsutomu Seki.